Trinity Center, CA

10:09 AM PST on February 27, 2017 (GMT -0800)
Trinity Center

Weather History for KO86 - December, 2013

Change the Weather History Date:

Thursday, December 26, 2013

  Actual Average (KMHS) Record (KMHS)
Temperature  
Mean Temperature 36 °F -  
Max Temperature 50 °F 41 °F 61 °F (1980)
Min Temperature 23 °F 26 °F 2 °F (1924)
Degree Days  
Heating Degree Days 28    
Moisture  
Dew Point 27 °F    
Average Humidity 84    
Maximum Humidity 93    
Minimum Humidity 43    
Precipitation  
Precipitation 0.00 in - - ()
Sea Level Pressure  
Sea Level Pressure 30.33 in    
Wind  
Wind Speed 0 mph (ENE)    
Max Wind Speed 4 mph    
Max Gust Speed -    
Visibility 10 miles    
Events      
Averages and records for this station are not official NWS values.
T = Trace of Precipitation, MM = Missing Value Source: NWS Daily Summary

Daily Weather History Graph

Daily Weather History Graph

Search for Another Location

Airport or City:

Trip Planner

Search our weather history database for the weather conditions in past years. The results will help you decide how hot, cold, wet, or windy it might be!

Date:

Astronomy

Dec. 26, 2013 Rise Set
Actual Time 7:34 AM PST 4:48 PM PST
Civil Twilight 7:03 AM PST 5:19 PM PST
Nautical Twilight 6:28 AM PST 5:54 PM PST
Astronomical Twilight 5:55 AM PST 6:28 PM PST
Moon 1:06 AM PST (12/26) 12:29 PM PST (12/26)
Length of Visible Light 10h 16m
Length of Day
9h 14m
Last Quarter, 37% of the Moon is Illuminated
Dec 26
Last Quarter
Jan 1
New
Jan 7
First Quarter
Jan 15
Full
Jan 23
Last Quarter

Hourly Weather History & Observations

Time (PST) Temp. Windchill Dew Point Humidity Pressure Visibility Wind Dir Wind Speed Gust Speed Precip Events Conditions
12:10 AM 26.6 °F - 24.8 °F 93% 30.38 in 9.0 mi Calm Calm - N/A   Clear
12:30 AM 26.6 °F - 24.8 °F 93% 30.38 in 8.0 mi Calm Calm - N/A   Clear
12:50 AM 26.6 °F - 24.8 °F 93% 30.38 in 9.0 mi Calm Calm - N/A   Clear
1:10 AM 26.6 °F - 24.8 °F 93% 30.38 in 10.0 mi Calm Calm - N/A   Clear
1:30 AM 26.6 °F - 24.8 °F 93% 30.38 in 10.0 mi Calm Calm - N/A   Clear
1:50 AM 26.6 °F - 24.8 °F 93% 30.38 in 10.0 mi Calm Calm - N/A   Clear
2:10 AM 26.6 °F - 23.0 °F 86% 30.38 in 10.0 mi Calm Calm - N/A   Clear
2:30 AM 26.6 °F - 24.8 °F 93% 30.38 in 10.0 mi Calm Calm - N/A   Clear
2:50 AM 26.6 °F - 23.0 °F 86% 30.38 in 10.0 mi Calm Calm - N/A   Clear
3:10 AM 26.6 °F - 23.0 °F 86% 30.38 in 8.0 mi Calm Calm - N/A   Clear
3:30 AM 24.8 °F - 23.0 °F 93% 30.38 in 10.0 mi Calm Calm - N/A   Clear
3:50 AM 24.8 °F - 23.0 °F 93% 30.37 in 10.0 mi Calm Calm - N/A   Clear
4:10 AM 24.8 °F - 23.0 °F 93% 30.37 in 10.0 mi Calm Calm - N/A   Clear
4:30 AM 24.8 °F - 23.0 °F 93% 30.37 in 10.0 mi Calm Calm - N/A   Clear
4:50 AM 24.8 °F - 23.0 °F 93% 30.36 in 10.0 mi Calm Calm - N/A   Clear
5:10 AM 24.8 °F - 23.0 °F 93% 30.37 in 10.0 mi Calm Calm - N/A   Clear
5:30 AM 24.8 °F - 23.0 °F 93% 30.37 in 10.0 mi Calm Calm - N/A   Clear
5:50 AM 24.8 °F - 23.0 °F 93% 30.37 in 5.0 mi Calm Calm - N/A   Clear
6:10 AM 24.8 °F - 23.0 °F 93% 30.37 in 10.0 mi Calm Calm - N/A   Clear
6:30 AM 24.8 °F - 21.2 °F 86% 30.37 in 10.0 mi Calm Calm - N/A   Clear
6:50 AM 24.8 °F - 21.2 °F 86% 30.37 in 10.0 mi Calm Calm - N/A   Clear
7:10 AM 24.8 °F - 23.0 °F 93% 30.37 in 10.0 mi Calm Calm - N/A   Clear
7:30 AM 23.0 °F - 21.2 °F 93% 30.37 in 10.0 mi Calm Calm - N/A   Clear
7:50 AM 24.8 °F - 21.2 °F 86% 30.37 in 10.0 mi Calm Calm - N/A   Clear
8:10 AM 24.8 °F - 23.0 °F 93% 30.38 in 8.0 mi Calm Calm - N/A   Clear
8:30 AM 26.6 °F - 24.8 °F 93% 30.38 in 10.0 mi Calm Calm - N/A   Clear
8:50 AM 28.4 °F - 24.8 °F 86% 30.38 in 10.0 mi Calm Calm - N/A   Partly Cloudy
9:10 AM 30.2 °F - 26.6 °F 86% 30.38 in 10.0 mi Calm Calm - N/A   Clear
9:30 AM 32.0 °F - 28.4 °F 87% 30.38 in 10.0 mi Calm Calm - N/A   Clear
9:50 AM 32.0 °F - 28.4 °F 87% 30.38 in 10.0 mi Calm Calm - N/A   Clear
10:10 AM 32.0 °F - 28.4 °F 87% 30.38 in 10.0 mi Calm Calm - N/A   Clear
10:30 AM 35.6 °F 32.8 °F 32.0 °F 87% 30.38 in 10.0 mi East 3.5 mph - N/A   Clear
10:50 AM 35.6 °F - 32.0 °F 87% 30.36 in 10.0 mi Calm Calm - N/A   Clear
11:10 AM 37.4 °F - 32.0 °F 81% 30.35 in 10.0 mi Calm Calm - N/A   Clear
11:30 AM 37.4 °F - 30.2 °F 75% 30.34 in 10.0 mi Calm Calm - N/A   Clear
11:50 AM 41.0 °F - 32.0 °F 70% 30.33 in 10.0 mi Calm Calm - N/A   Clear
12:10 PM 41.0 °F - 32.0 °F 70% 30.32 in 10.0 mi Calm Calm - N/A   Clear
12:30 PM 44.6 °F - 32.0 °F 61% 30.31 in 10.0 mi Calm Calm - N/A   Clear
12:50 PM 44.6 °F - 32.0 °F 61% 30.30 in 10.0 mi Calm Calm - N/A   Clear
1:10 PM 46.4 °F - 32.0 °F 57% 30.29 in 10.0 mi Calm Calm - N/A   Clear
1:30 PM 48.2 °F - 33.8 °F 58% 30.28 in 10.0 mi Calm Calm - N/A   Clear
1:50 PM 48.2 °F - 30.2 °F 50% 30.28 in 10.0 mi Calm Calm - N/A   Clear
2:10 PM 50.0 °F - 28.4 °F 43% 30.27 in 10.0 mi ENE 3.5 mph - N/A   Clear
2:30 PM 50.0 °F - 35.6 °F 58% 30.27 in 10.0 mi Calm Calm - N/A   Clear
2:50 PM 50.0 °F - 32.0 °F 50% 30.26 in 10.0 mi Calm Calm - N/A   Clear
3:10 PM 50.0 °F - 35.6 °F 58% 30.26 in 10.0 mi Calm Calm - N/A   Clear
3:30 PM 48.2 °F - 35.6 °F 62% 30.26 in 10.0 mi Calm Calm - N/A   Clear
3:50 PM 41.0 °F - 33.8 °F 76% 30.26 in 10.0 mi Calm Calm - N/A   Clear
4:10 PM 39.2 °F - 32.0 °F 75% 30.26 in 10.0 mi Calm Calm - N/A   Clear
4:30 PM 39.2 °F - 32.0 °F 75% 30.26 in 9.0 mi Calm Calm - N/A   Clear
4:50 PM 37.4 °F - 32.0 °F 81% 30.27 in 10.0 mi Calm Calm - N/A   Clear
5:10 PM 37.4 °F - 32.0 °F 81% 30.28 in 10.0 mi Calm Calm - N/A   Clear
5:30 PM 35.6 °F - 32.0 °F 87% 30.28 in 10.0 mi Calm Calm - N/A   Clear
5:50 PM 35.6 °F - 32.0 °F 87% 30.28 in 10.0 mi Calm Calm - N/A   Clear
6:10 PM 33.8 °F - 32.0 °F 93% 30.28 in 10.0 mi Calm Calm - N/A   Clear
6:30 PM 33.8 °F - 30.2 °F 87% 30.29 in 10.0 mi Calm Calm - N/A   Clear
6:50 PM 32.0 °F - 30.2 °F 93% 30.29 in 9.0 mi Calm Calm - N/A   Clear
7:10 PM 32.0 °F - 28.4 °F 87% 30.29 in 10.0 mi Calm Calm - N/A   Clear
7:30 PM 32.0 °F - 28.4 °F 87% 30.29 in 10.0 mi Calm Calm - N/A   Clear
7:50 PM 32.0 °F - 28.4 °F 87% 30.30 in 8.0 mi Calm Calm - N/A   Clear
8:10 PM 30.2 °F - 28.4 °F 93% 30.30 in 10.0 mi Calm Calm - N/A   Clear
8:30 PM 30.2 °F - 28.4 °F 93% 30.30 in 10.0 mi Calm Calm - N/A   Clear
8:50 PM 28.4 °F - 26.6 °F 93% 30.30 in 10.0 mi Calm Calm - N/A   Clear
9:10 PM 30.2 °F - 26.6 °F 86% 30.30 in 10.0 mi Calm Calm - N/A   Clear
9:30 PM 28.4 °F - 26.6 °F 93% 30.31 in 9.0 mi Calm Calm - N/A   Clear
9:50 PM 28.4 °F - 26.6 °F 93% 30.31 in 10.0 mi Calm Calm - N/A   Clear
10:10 PM 28.4 °F - 26.6 °F 93% 30.31 in 10.0 mi Calm Calm - N/A   Clear
10:30 PM 28.4 °F - 26.6 °F 93% 30.31 in 10.0 mi Calm Calm - N/A   Clear
10:50 PM 28.4 °F - 26.6 °F 93% 30.31 in 10.0 mi Calm Calm - N/A   Clear
11:10 PM 28.4 °F - 24.8 °F 86% 30.32 in 10.0 mi Calm Calm - N/A   Clear
11:30 PM 28.4 °F - 24.8 °F 86% 30.32 in 10.0 mi Calm Calm - N/A   Clear
11:50 PM 28.4 °F - 24.8 °F 86% 30.32 in 10.0 mi Calm Calm - N/A   Clear